TimePST,TemperatureF,Dew PointF,Humidity,Sea Level PressureIn,VisibilityMPH,Wind Direction,Wind SpeedMPH,Gust SpeedMPH,PrecipitationIn,Events,Conditions,WindDirDegrees,DateUTC
12:56 AM,37.9,23.0,55,30.26,10.0,WNW,5.8,-,N/A,,Clear,290,2012-11-23 08:56:00
1:56 AM,41.0,24.1,51,30.25,10.0,Calm,Calm,-,N/A,,Clear,0,2012-11-23 09:56:00
2:56 AM,41.0,25.0,53,30.25,10.0,Calm,Calm,-,N/A,,Clear,0,2012-11-23 10:56:00
3:56 AM,37.9,24.1,57,30.25,10.0,Calm,Calm,-,N/A,,Clear,0,2012-11-23 11:56:00
4:56 AM,37.0,23.0,57,30.27,10.0,Calm,Calm,-,N/A,,Clear,0,2012-11-23 12:56:00
5:56 AM,37.0,24.1,59,30.29,10.0,Calm,Calm,-,N/A,,Clear,0,2012-11-23 13:56:00
6:56 AM,36.0,21.9,57,30.31,10.0,Calm,Calm,-,N/A,,Clear,0,2012-11-23 14:56:00
7:56 AM,41.0,25.0,53,30.34,10.0,Calm,Calm,-,N/A,,Clear,0,2012-11-23 15:56:00
8:56 AM,48.9,27.0,43,30.33,10.0,Calm,Calm,-,N/A,,Clear,0,2012-11-23 16:56:00
9:56 AM,59.0,27.0,29,30.32,10.0,Calm,Calm,-,N/A,,Clear,0,2012-11-23 17:56:00
10:56 AM,66.9,26.1,21,30.30,10.0,ENE,3.5,-,N/A,,Clear,70,2012-11-23 18:56:00
11:56 AM,70.0,25.0,18,30.27,10.0,NE,5.8,-,N/A,,Clear,40,2012-11-23 19:56:00
12:56 PM,72.0,23.0,16,30.24,10.0,ENE,8.1,-,N/A,,Clear,60,2012-11-23 20:56:00
1:56 PM,73.9,21.9,14,30.21,10.0,ENE,8.1,16.1,N/A,,Clear,60,2012-11-23 21:56:00
2:56 PM,73.0,21.9,15,30.20,10.0,NE,12.7,-,N/A,,Clear,50,2012-11-23 22:56:00
3:56 PM,72.0,23.0,16,30.20,10.0,ENE,8.1,-,N/A,,Clear,70,2012-11-23 23:56:00
4:56 PM,66.0,21.9,19,30.20,10.0,NE,3.5,-,N/A,,Clear,50,2012-11-24 00:56:00
5:56 PM,60.1,21.9,23,30.22,10.0,ENE,3.5,-,N/A,,Clear,60,2012-11-24 01:56:00
6:56 PM,48.0,18.0,30,30.25,10.0,WNW,6.9,-,N/A,,Clear,300,2012-11-24 02:56:00
7:56 PM,46.9,19.0,33,30.26,10.0,WNW,9.2,-,N/A,,Clear,300,2012-11-24 03:56:00
8:56 PM,45.0,19.0,36,30.26,10.0,West,6.9,-,N/A,,Clear,270,2012-11-24 04:56:00
9:56 PM,46.0,19.9,35,30.25,10.0,WSW,4.6,-,N/A,,Clear,240,2012-11-24 05:56:00
10:56 PM,41.0,18.0,40,30.25,10.0,WNW,5.8,-,N/A,,Clear,290,2012-11-24 06:56:00
11:56 PM,39.0,19.0,45,30.24,10.0,WNW,4.6,-,N/A,,Clear,290,2012-11-24 07:56:00